Flag for Germany Weather past 2 weeks in Mühlhausen/Thüringen, Thuringia, Germany

Now
57 °F

Passing clouds.


Feels Like: 57 °F
Forecast: 56 / 75 °F
Wind: 3 mph from Northeast

Location: Erfurt-Bindersleben

Current Time: Jul 24, 2014 at 5:15:39 AM

Latest Report: Jul 24, 2014 at 5:00 AM


Visibility: 38 mi

Pressure: 30.01 "Hg

Humidity: 87%

Dew point: 53 °F

Location of Mühlhausen/ThüringenLocation

Historic Weather in Mühlhausen/Thüringen — Graph

°F

Mühlhausen/Thüringen temperature yesterday

Maximum temperature yesterday: 80 °F (at 4:00 PM)
Minimum temperature yesterday: 62 °F (at 6:00 AM)
Average temperature yesterday: 71 °F

Past Weeks' High & Low Weather Summary

 TemperatureHumidityPressure
High88 °F (Jul 19, 5:00 PM)96% (Jul 11, 3:00 AM)30.20 "Hg (Jul 11, 3:00 AM)
Low52 °F (Jul 13, 5:00 AM)27% (Jul 19, 7:00 PM)29.65 "Hg (Jul 9, 4:00 PM)
Average68 °F69%29.94 "Hg
* Reported Jul 9 3:00 PM — Jul 24 4:00 AM, Mühlhausen/Thüringen, Weather by CustomWeather, © 2014

Note: Actual official high and low records may vary slightly from our data, if they occured in-between our weather recording intervals... More about our weather records

Advertising

Mühlhausen/Thüringen weather history for previous 24 hours

 ConditionsComfort  
Time TempWeatherWind HumidityBarometerVisibility
4:00 AM
Jul 24
58 °FPassing clouds.3 mph84%29.99 "Hg37 mi
3:00 AM61 °FPassing clouds.2 mph76%30.00 "Hg37 mi
2:00 AM62 °FPassing clouds.3 mph75%30.01 "Hg37 mi
1:00 AM63 °FPassing clouds.3 mph71%30.01 "Hg37 mi
12:00 AM66 °FPassing clouds.2 mph62%30.01 "Hg37 mi
11:00 PM
Jul 23
66 °FPassing clouds.2 mph57%30.00 "Hg43 mi
10:00 PM68 °FPassing clouds.3 mph51%30.00 "Hg43 mi
9:00 PM73 °FPassing clouds.3 mph45%29.98 "Hg43 mi
8:00 PM76 °FPassing clouds.6 mph36%29.97 "Hg37 mi
7:00 PM78 °FPassing clouds.6 mph37%29.98 "Hg31 mi
6:00 PM78 °FPassing clouds.6 mph40%29.98 "Hg31 mi
5:00 PM77 °FPartly sunny.6 mph40%29.99 "Hg31 mi
4:00 PM80 °FScattered clouds.6 mph36%29.99 "Hg31 mi
3:00 PM78 °FScattered clouds.6 mph40%30.01 "Hg31 mi
6:00 AM62 °FPartly sunny.2 mph83%30.08 "Hg31 mi
5:00 AM62 °FPassing clouds.2 mph83%30.07 "Hg31 mi
Weather by CustomWeather, © 2014

See weather overviewHow to use our weather pages